When you browse on this site, cookies collect data to enhance your experience and personalize the content and advertising you see.
Visit our Privacy Policy to learn more. By continuing to use the site, you agree to this use of cookies and data.
  • In Deutschland
  • Länderverzeichnis
  • Für 7 Tage
  • Wassertemperatur
  • Satellitenkarten
  • Wetterkarte
  • Widgets
  • user-avatar
    Anmelden

    Stündliche Wetter Zofinin

    Heute, 22 Mai, Mittwoch

    Zeit Temperatur Niederschläge Wind Luftdruck Luftfeuchtigkeit
    00:00 +11°C° 0 mm 4 m/S 742 mmHg 92%
    01:00 +11°C° 0 mm 4 m/S 742 mmHg 94%
    02:00 +11°C° 0 mm 4 m/S 742 mmHg 94%
    03:00 +11°C° 0 mm 4 m/S 742 mmHg 94%
    04:00 +11°C° 0 mm 4 m/S 742 mmHg 95%
    05:00 +12°C° 0 mm 5 m/S 742 mmHg 91%
    06:00 +13°C° 0 mm 5 m/S 742 mmHg 87%
    07:00 +15°C° 0 mm 5 m/S 742 mmHg 81%
    08:00 +15°C° 0.1 mm 5 m/S 742 mmHg 79%
    09:00 +16°C° 0.1 mm 5 m/S 743 mmHg 78%
    10:00 +17°C° 0.1 mm 5 m/S 743 mmHg 76%
    11:00 +17°C° 0.4 mm 5 m/S 743 mmHg 75%
    12:00 +19°C° 0.4 mm 5 m/S 743 mmHg 74%
    13:00 +20°C° 0.4 mm 5 m/S 743 mmHg 73%
    14:00 +20°C° 0.6 mm 4 m/S 743 mmHg 74%
    15:00 +20°C° 0.6 mm 4 m/S 743 mmHg 75%
    16:00 +20°C° 0.6 mm 4 m/S 743 mmHg 76%
    17:00 +19°C° 0.3 mm 3 m/S 743 mmHg 81%
    18:00 +18°C° 0.3 mm 3 m/S 743 mmHg 85%
    19:00 +17°C° 0.3 mm 3 m/S 743 mmHg 90%
    20:00 +16°C° 0.2 mm 2 m/S 743 mmHg 91%
    21:00 +15°C° 0.2 mm 2 m/S 743 mmHg 93%
    22:00 +14°C° 0.2 mm 2 m/S 744 mmHg 94%
    23:00 +14°C° 0.1 mm 2 m/S 744 mmHg 95%

    Morgen, 23 Mai, Donnerstag

    Zeit Temperatur Niederschläge Wind Luftdruck Luftfeuchtigkeit
    00:00 +14°C° 0.1 mm 2 m/S 744 mmHg 95%
    01:00 +13°C° 0.1 mm 1 m/S 745 mmHg 95%
    02:00 +13°C° 0 mm 1 m/S 745 mmHg 95%
    03:00 +13°C° 0 mm 1 m/S 745 mmHg 96%
    04:00 +13°C° 0 mm 1 m/S 745 mmHg 96%
    05:00 +14°C° 0 mm 1 m/S 745 mmHg 92%
    06:00 +16°C° 0 mm 1 m/S 746 mmHg 88%
    07:00 +18°C° 0 mm 1 m/S 746 mmHg 85%
    08:00 +19°C° 0 mm 2 m/S 746 mmHg 79%
    09:00 +20°C° 0 mm 2 m/S 746 mmHg 73%
    10:00 +21°C° 0 mm 2 m/S 747 mmHg 67%
    11:00 +23°C° 0.4 mm 2 m/S 747 mmHg 67%
    12:00 +22°C° 0.4 mm 3 m/S 747 mmHg 66%
    13:00 +22°C° 0.4 mm 3 m/S 747 mmHg 66%
    14:00 +22°C° 1 mm 3 m/S 747 mmHg 71%
    15:00 +21°C° 1 mm 4 m/S 747 mmHg 76%
    16:00 +21°C° 1 mm 5 m/S 747 mmHg 80%
    17:00 +19°C° 0.3 mm 5 m/S 747 mmHg 83%
    18:00 +17°C° 0.3 mm 5 m/S 747 mmHg 86%
    19:00 +16°C° 0.3 mm 5 m/S 747 mmHg 89%
    20:00 +15°C° 0 mm 5 m/S 747 mmHg 91%
    21:00 +14°C° 0 mm 4 m/S 748 mmHg 92%
    22:00 +12°C° 0 mm 4 m/S 748 mmHg 93%
    23:00 +12°C° 0 mm 4 m/S 748 mmHg 91%

    übermorgen, 24 Mai, Freitag

    Zeit Temperatur Niederschläge Wind Luftdruck Luftfeuchtigkeit
    00:00 +12°C° 0 mm 4 m/S 748 mmHg 89%
    01:00 +12°C° 0 mm 4 m/S 748 mmHg 87%
    02:00 +11°C° 0 mm 4 m/S 748 mmHg 85%
    03:00 +11°C° 0 mm 3 m/S 748 mmHg 83%
    04:00 +11°C° 0 mm 3 m/S 748 mmHg 81%
    05:00 +11°C° 0 mm 3 m/S 748 mmHg 80%
    06:00 +12°C° 0 mm 3 m/S 749 mmHg 80%
    07:00 +12°C° 0 mm 3 m/S 749 mmHg 80%
    08:00 +14°C° 0 mm 4 m/S 749 mmHg 75%
    09:00 +17°C° 0 mm 4 m/S 749 mmHg 71%
    10:00 +19°C° 0 mm 4 m/S 749 mmHg 67%
    11:00 +20°C° 0 mm 4 m/S 748 mmHg 64%
    12:00 +20°C° 0 mm 5 m/S 748 mmHg 62%
    13:00 +21°C° 0 mm 5 m/S 748 mmHg 60%
    14:00 +21°C° 0 mm 5 m/S 748 mmHg 60%
    15:00 +21°C° 0 mm 4 m/S 747 mmHg 60%
    16:00 +21°C° 0 mm 4 m/S 747 mmHg 60%
    17:00 +20°C° 0 mm 4 m/S 747 mmHg 65%
    18:00 +18°C° 0 mm 3 m/S 747 mmHg 71%
    19:00 +17°C° 0 mm 3 m/S 747 mmHg 77%
    20:00 +16°C° 0 mm 3 m/S 747 mmHg 80%
    21:00 +14°C° 0 mm 2 m/S 747 mmHg 83%
    22:00 +13°C° 0 mm 2 m/S 748 mmHg 87%
    23:00 +13°C° 0 mm 1 m/S 747 mmHg 86%

    25 Mai, Samstag

    Zeit Temperatur Niederschläge Wind Luftdruck Luftfeuchtigkeit
    00:00 +12°C° 0 mm 1 m/S 747 mmHg 86%
    01:00 +10°C° 0 mm 0 m/S 747 mmHg 86%
    02:00 +12°C° 0 mm 1 m/S 747 mmHg 85%
    03:00 +12°C° 0 mm 1 m/S 747 mmHg 83%
    04:00 +12°C° 0 mm 1 m/S 747 mmHg 82%
    05:00 +14°C° 0 mm 2 m/S 747 mmHg 80%
    06:00 +15°C° 0 mm 2 m/S 747 mmHg 77%
    07:00 +17°C° 0 mm 3 m/S 747 mmHg 75%
    08:00 +18°C° 0.1 mm 4 m/S 747 mmHg 69%
    09:00 +20°C° 0.1 mm 4 m/S 747 mmHg 63%
    10:00 +21°C° 0.1 mm 5 m/S 747 mmHg 58%
    11:00 +21°C° 0.3 mm 5 m/S 746 mmHg 59%
    12:00 +21°C° 0.3 mm 5 m/S 746 mmHg 61%
    13:00 +21°C° 0.3 mm 6 m/S 746 mmHg 62%
    14:00 +21°C° 0.1 mm 5 m/S 746 mmHg 61%
    15:00 +21°C° 0.1 mm 5 m/S 746 mmHg 61%
    16:00 +21°C° 0.1 mm 5 m/S 746 mmHg 60%
    17:00 +19°C° 0 mm 4 m/S 746 mmHg 65%
    18:00 +18°C° 0 mm 4 m/S 746 mmHg 69%
    19:00 +16°C° 0 mm 3 m/S 746 mmHg 74%
    20:00 +16°C° 0 mm 3 m/S 746 mmHg 76%
    21:00 +14°C° 0 mm 3 m/S 746 mmHg 77%
    22:00 +14°C° 0 mm 2 m/S 747 mmHg 79%
    23:00 +12°C° 0 mm 3 m/S 747 mmHg 82%

    26 Mai, Sonntag

    Zeit Temperatur Niederschläge Wind Luftdruck Luftfeuchtigkeit
    00:00 +12°C° 0 mm 3 m/S 747 mmHg 85%
    01:00 +11°C° 0 mm 4 m/S 747 mmHg 88%
    02:00 +10°C° 0 mm 3 m/S 747 mmHg 90%
    03:00 +9°C° 0 mm 3 m/S 747 mmHg 91%
    04:00 +9°C° 0 mm 3 m/S 746 mmHg 93%
    05:00 +10°C° 0 mm 4 m/S 746 mmHg 87%
    06:00 +11°C° 0 mm 4 m/S 746 mmHg 81%
    07:00 +13°C° 0 mm 5 m/S 746 mmHg 76%
    08:00 +13°C° 0 mm 5 m/S 746 mmHg 73%
    09:00 +13°C° 0 mm 6 m/S 746 mmHg 71%
    10:00 +14°C° 0 mm 6 m/S 746 mmHg 68%
    11:00 +14°C° 0 mm 6 m/S 746 mmHg 67%
    12:00 +14°C° 0 mm 6 m/S 746 mmHg 67%
    13:00 +14°C° 0 mm 7 m/S 745 mmHg 66%
    14:00 +14°C° 0.1 mm 7 m/S 745 mmHg 66%
    15:00 +14°C° 0.1 mm 7 m/S 745 mmHg 66%
    16:00 +12°C° 0.1 mm 7 m/S 745 mmHg 66%
    17:00 +13°C° 0.1 mm 6 m/S 745 mmHg 69%
    18:00 +11°C° 0.1 mm 6 m/S 745 mmHg 73%
    19:00 +10°C° 0.1 mm 5 m/S 745 mmHg 76%
    20:00 +9°C° 0 mm 5 m/S 746 mmHg 76%
    21:00 +8°C° 0 mm 5 m/S 746 mmHg 76%
    22:00 +7°C° 0 mm 5 m/S 746 mmHg 76%
    23:00 +6°C° 0 mm 5 m/S 746 mmHg 77%

    27 Mai, Montag

    Zeit Temperatur Niederschläge Wind Luftdruck Luftfeuchtigkeit
    00:00 +6°C° 0 mm 5 m/S 747 mmHg 77%
    01:00 +6°C° 0 mm 5 m/S 747 mmHg 78%
    02:00 +6°C° 0 mm 5 m/S 747 mmHg 78%
    03:00 +5°C° 0 mm 5 m/S 747 mmHg 79%
    04:00 +5°C° 0 mm 5 m/S 747 mmHg 79%
    05:00 +7°C° 0 mm 5 m/S 747 mmHg 76%
    06:00 +8°C° 0 mm 5 m/S 748 mmHg 72%
    07:00 +9°C° 0 mm 6 m/S 748 mmHg 69%
    08:00 +12°C° 0 mm 5 m/S 748 mmHg 66%
    09:00 +13°C° 0 mm 5 m/S 748 mmHg 63%
    10:00 +14°C° 0 mm 5 m/S 748 mmHg 60%
    11:00 +15°C° 0 mm 4 m/S 748 mmHg 57%
    12:00 +17°C° 0 mm 4 m/S 748 mmHg 54%
    13:00 +18°C° 0 mm 4 m/S 748 mmHg 51%
    14:00 +18°C° 0 mm 4 m/S 747 mmHg 50%
    15:00 +19°C° 0 mm 3 m/S 747 mmHg 49%
    16:00 +19°C° 0 mm 3 m/S 746 mmHg 48%
    17:00 +18°C° 0 mm 2 m/S 746 mmHg 54%
    18:00 +17°C° 0 mm 2 m/S 746 mmHg 60%
    19:00 +16°C° 0 mm 2 m/S 745 mmHg 66%
    20:00 +15°C° 0 mm 2 m/S 745 mmHg 67%
    21:00 +13°C° 0 mm 3 m/S 745 mmHg 68%
    22:00 +12°C° 0 mm 3 m/S 745 mmHg 69%
    23:00 +12°C° 0 mm 3 m/S 745 mmHg 72%
    Mehr zeigen